FENGYUN 1C DEB, 33684

Orbit data source: Space-Track

FENGYUN 1C DEB, 33684 is space debris in SSO originally from a launch on Mon, 10 May 1999 UTC launched from the Taiyaun Space Center, China (TSC). Fengyun 1C debris stems from the Chinese weather satellite Fengyun-1C, which was intentionally destroyed by a Chinese anti-satellite missile in 2007. This event dramatically increased the amount of space debris, with thousands of trackable fragments posing hazards to satellites and human spaceflight. The Fengyun 1C debris cloud has become a focal point in discussions about space sustainability and the need for international regulations to prevent the creation of new debris.

Loading next visibility...
Identifier
33684, 1999-025DFV
Orbit
SSO
Country
Flag of CNCN / PRC
Related business
Manufacturer
Unknown
Mission
Spacecraft
Bus & Motor
Unknown
Mass
Unknown
Launch date (UTC)
1999-05-10 (27 years ago)
Launch vehicle
Unknown
Launch site
Taiyaun Space Center, China (TSC)
Object type
Payload
Rocket body
Debris
Shape & HBR
Unknown shape, 0.1 m
Radar Cross Section
Small (<0.1 m²)

Expand to show TLE details & history
Last TLE update: 2 days ago

TLE from 2 days ago
0 FENGYUN 1C DEB
1 33684U 99025DFV 26166.96823581  .00013013  00000-0  97361-3 0  9999
2 33684  99.0434 249.7710 0273539 121.8017 241.0143 14.77617268957201
Epoch: 2026-06-15T23:14Z
TLE epoch observation values (Epoch: 2026-06-15T23:14:15.573Z)
Latitude
-0.00007°
Longitude
-3.04089°
Altitude
736.786 km
Speed
7.435 km/s
True Right ascension
16h 39m 05s
True Declination
0° 00' 00"
Sunlit
Object was in full shadow at epoch
Visualization orbit readout
Latitude
Unknown
Longitude
Unknown
Altitude
Unknown
Speed
Unknown
Apparent Right ascension
Unknown
Apparent Declination
Unknown
Sunlit
N/A
Visualization observer readout
Local Sidereal Time
00:56:03
Azimuth
Unknown
Elevation
Unknown
Doppler factor
Unknown
Orbital elements
Apogee altitude
825.759 km
Perigee altitude
442.143 km
Semi-major axis
7,012.088 km
Eccentricity
0.02735
Inclination
99.0434°
RAAN
249.771°
Arg. of periapsis
121.8017°
True anomaly
238.31812°
Mean anomaly
241.0143°
Eccentric anomaly
239.66166°
Mean motion
3.69634 °/min
Orbital period
97.39 mins
BSTAR
0.00097361
Loading maneuver chart data...
Computing Atmospheric mass density...

Documentation

Showing up to 5 results
|